Location: Proctor
(47.8934°N, 114.3048°W)
Time: 22:01:48
(UTC+00:00)

Transit 2A Rocket - Visible Passes

Search period start: 23 June 2024 00:00
Search period end: 03 July 2024 00:00
Orbit: 583 x 910 km, 66.7° (Epoch: 22 June)

Date Brightness Start Highest point End Pass type
(mag) Time Alt. Az. Time Alt. Az. Time Alt. Az.
23 Jun 7.4 05:25:53 10° W 05:30:30 29° NW 05:35:28 10° NNE visible
23 Jun 8.4 07:12:26 10° NW 07:15:03 13° NNW 07:17:45 10° NNE visible
23 Jun 8.5 08:57:19 10° NNW 09:00:14 14° NNE 09:03:11 10° NE visible
23 Jun 7.6 10:39:28 10° NNW 10:44:44 30° NE 10:50:04 10° E visible
24 Jun 6.7 04:41:07 10° WSW 04:46:05 41° NW 04:51:30 10° NNE visible
24 Jun 8.3 06:27:00 10° NW 06:30:16 15° NNW 06:33:39 10° NNE visible
24 Jun 8.7 08:13:04 10° NNW 08:15:24 12° N 08:17:46 10° NNE visible
24 Jun 8.0 09:55:32 10° NNW 10:00:13 23° NNE 10:04:58 10° E visible
25 Jun 8.2 05:41:39 10° WNW 05:45:34 19° NNW 05:49:39 10° NNE visible
25 Jun 8.7 07:28:23 10° NNW 07:30:32 12° N 07:32:42 10° NNE visible
25 Jun 8.3 09:11:35 10° NNW 09:15:34 18° NNE 09:19:37 10° ENE visible
25 Jun 6.5 10:53:39 10° NNW 10:59:32 50° NE 11:05:26 10° ESE visible
26 Jun 7.7 04:56:31 10° W 05:00:57 25° NW 05:05:43 10° NNE visible
26 Jun 8.6 06:43:14 10° NNW 06:45:40 13° N 06:48:09 10° NNE visible
26 Jun 8.5 08:27:34 10° NNW 08:30:50 15° NNE 08:34:09 10° NE visible
26 Jun 7.2 10:09:40 10° NNW 10:15:11 35° NE 10:20:43 10° ESE visible
27 Jun 8.5 05:57:50 10° NW 06:00:51 14° NNW 06:03:57 10° NNE visible
27 Jun 8.5 07:43:24 10° NNW 07:46:01 13° N 07:48:40 10° NE visible
27 Jun 7.7 09:25:43 10° NNW 09:30:42 26° NE 09:35:44 10° E visible
28 Jun 8.3 05:12:26 10° WNW 05:16:05 17° NNW 05:19:55 10° NNE visible
28 Jun 8.5 06:58:56 10° NNW 07:01:09 12° N 07:03:24 10° NNE visible
28 Jun 8.1 08:41:46 10° NNW 08:46:06 20° NNE 08:50:30 10° ENE visible
28 Jun 6.0 10:23:52 10° NNW 10:29:53 60° NE 10:35:52 10° SE visible
29 Jun 8.0 04:27:11 10° W 04:31:26 22° NNW 04:35:56 10° NNE visible
29 Jun 8.5 06:13:58 10° NNW 06:16:16 12° N 06:18:37 10° NNE visible
29 Jun 8.2 07:57:47 10° NNW 08:01:24 16° NNE 08:05:05 10° ENE visible
29 Jun 6.8 09:39:52 10° NNW 09:45:35 41° NE 09:51:18 10° ESE visible
30 Jun 8.3 05:28:39 10° NW 05:31:25 13° NNW 05:34:16 10° NNE visible
30 Jun 8.3 07:13:41 10° NNW 07:16:36 14° NNE 07:19:34 10° NE visible
30 Jun 7.3 08:55:54 10° NNW 09:01:09 30° NE 09:06:27 10° E visible
30 Jun 5.3 10:38:13 10° NW 10:44:19 76° WSW 10:50:19 10° SSE visible
01 Jul 8.2 04:43:14 10° WNW 04:46:38 16° NNW 04:50:09 10° NNE visible
01 Jul 8.3 06:29:22 10° NNW 06:31:46 12° N 06:34:11 10° NNE visible
01 Jul 7.8 08:11:56 10° NNW 08:16:36 23° NNE 08:21:19 10° E visible
01 Jul 5.7 09:54:06 10° NNW 10:00:12 72° NE 10:06:14 10° SE visible
02 Jul 8.3 05:44:37 10° NNW 05:46:53 12° N 05:49:10 10° NNE visible
02 Jul 8.0 07:27:58 10° NNW 07:31:57 18° NNE 07:35:58 10° ENE visible
02 Jul 6.3 09:10:04 10° NNW 09:15:57 49° NE 09:21:48 10° ESE visible
02 Jul 5.8 10:52:51 10° NW 10:58:26 39° WSW 11:03:57 10° S visible
